OPS 4682 DEB, 38375

Orbit data source: Space-Track

OPS 4682 DEB, 38375 is space debris in LEO originally from a launch on Sat, 03 Apr 1965 UTC launched from the Air Force Western Test Range (AFWTR). Debris objects in space refer to the collection of defunct objects orbiting the Earth. Examples of debris include non-operational satellites, rocket bodies, and fragments generated from explosions, collisions, or faulty payload assembly.

Loading next visibility...
Identifier
38375, 1965-027CC
Orbit
LEO
Country
Flag of USUS
Related business
Manufacturer
Unknown
Mission
Spacecraft
Bus & Motor
Unknown
Mass
Unknown
Launch date (UTC)
1965-04-03 (61 years ago)
Launch vehicle
Unknown
Launch site
Air Force Western Test Range (AFWTR)
Object type
Payload
Rocket body
Debris
Shape & HBR
Unknown shape, 0.1 m
Radar Cross Section
Small (<0.1 m²)

Expand to show TLE details & history
Last TLE update: 10 hours ago

TLE from 10 hours ago
0 OPS 4682 DEB
1 38375U 65027CC  26150.56271831  .00000100  00000-0  33189-3 0  9991
2 38375  90.2395   6.6721 0029557 253.7611 106.0256 12.94902677613840
Epoch: 2026-05-30T13:30Z
TLE epoch observation values (Epoch: 2026-05-30T13:30:18.861Z)
Latitude
-0.00002°
Longitude
-83.98345°
Altitude
1,291.313 km
Speed
7.208 km/s
True Right ascension
00h 26m 41s
True Declination
0° 00' 00"
Sunlit
Object was in daylight at epoch
Visualization orbit readout
Latitude
Unknown
Longitude
Unknown
Altitude
Unknown
Speed
Unknown
Apparent Right ascension
Unknown
Apparent Declination
Unknown
Sunlit
N/A
Visualization observer readout
Local Sidereal Time
09:13:58
Azimuth
Unknown
Elevation
Unknown
Doppler factor
Unknown
Orbital elements
Apogee altitude
1,301.891 km
Perigee altitude
1,256.625 km
Semi-major axis
7,657.395 km
Eccentricity
0.00296
Inclination
90.2395°
RAAN
6.6721°
Arg. of periapsis
253.7611°
True anomaly
106.3508°
Mean anomaly
106.0256°
Eccentric anomaly
106.18823°
Mean motion
3.23908 °/min
Orbital period
111.14 mins
BSTAR
0.00033189
Loading maneuver chart data...
Computing Atmospheric mass density...
Loading historical data...
Loading historical data...
Loading historical data...
Loading historical data...
Loading historical data...
Loading historical data...
Loading historical data...

Documentation

Showing up to 5 results
|